Terminal Aerodrome Forecast
Issued by NWS Wilmington, OH

Current Version | Previous Version | Graphics & Text | Print | Product List | Glossary On
Versions: 1 2 3 4 5 6 7 8 9 10 11 12 13 14 15 16 17 18 19 20 21 22 23 24 25 26 27 28 29 30 31 32 33 34 35 36
903
FTUS41 KILN 282020 AAC
TAFCVG
TAF AMD
KCVG 282020Z 2820/2924 25011G18KT P6SM VCTS BKN035CB
      TEMPO 2820/2822 VRB22G30KT 4SM TSRA BR OVC025CB
     FM282200 27009KT P6SM SCT050
     FM290800 28004KT 5SM BR OVC008
     FM291000 29004KT 2SM BR VV003
     FM291400 32006KT P6SM BKN015
     FM291600 30008KT P6SM BKN035=

USA.gov is the U.S. government's official web portal to all federal, state and local government web resources and services.